Mackinac Island, MI

4:20 AM EST on February 14, 2016 (GMT -0500)
Mackinac Island

Weather History for KMCD - June, 2013

Change the Weather History Date:

Monday, June 17, 2013

  Actual Average Record
Temperature  
Mean Temperature 56 °F -  
Max Temperature 61 °F 66 °F 86 °F (2006)
Min Temperature 51 °F 51 °F 39 °F (1997)
Degree Days  
Heating Degree Days 9    
Growing Degree Days 6 (Base 50)    
Moisture  
Dew Point 51 °F    
Average Humidity 84    
Maximum Humidity 96    
Minimum Humidity 68    
Precipitation  
Precipitation 0.00 in - - ()
Sea Level Pressure  
Sea Level Pressure 29.94 in    
Wind  
Wind Speed 5 mph (NE)    
Max Wind Speed 13 mph    
Max Gust Speed 17 mph    
Visibility 9 miles    
Events      
Averages and records for this station are not official NWS values.
T = Trace of Precipitation, MM = Missing Value Source: NWS Daily Summary

Daily Weather History Graph

Daily Weather History Graph

Search for Another Location

Airport or City:

Trip Planner

Search our weather history database for the weather conditions in past years. The results will help you decide how hot, cold, wet, or windy it might be!

Date:

Astronomy

Jun. 17, 2013 Rise Set
Actual Time 5:47 AM EDT 9:31 PM EDT
Civil Twilight 5:09 AM EDT 10:09 PM EDT
Nautical Twilight 4:17 AM EDT 11:01 PM EDT
Astronomical Twilight 3:06 AM EDT 12:13 AM EDT
Moon 2:53 PM EDT (6/17) 1:41 AM EDT (6/17)
Length of Visible Light 17h 00m
Length of Day
15h 43m
First Quarter, 60% of the Moon is Illuminated
Jun 17
First Quarter
Jun 23
Full
Jun 30
Last Quarter
Jul 8
New
Jul 15
First Quarter

Hourly Weather History & Observations

Time (EDT) Temp. Dew Point Humidity Pressure Visibility Wind Dir Wind Speed Gust Speed Precip Events Conditions
12:14 AM 56.7 °F 55.4 °F 96% 29.82 in 10.0 mi WNW 3.5 mph - N/A   Overcast
12:33 AM 56.7 °F 55.4 °F 96% 29.83 in 10.0 mi NNW 4.6 mph - N/A   Mostly Cloudy
12:54 AM 57.2 °F 55.4 °F 94% 29.83 in 10.0 mi Calm Calm - N/A   Overcast
1:14 AM 57.2 °F 55.0 °F 92% 29.84 in 10.0 mi WNW 4.6 mph - N/A   Overcast
1:34 AM 57.0 °F 54.7 °F 92% 29.84 in 10.0 mi NW 6.9 mph - N/A   Overcast
1:54 AM 57.2 °F 54.0 °F 89% 29.85 in 10.0 mi WNW 4.6 mph - N/A   Overcast
2:14 AM 56.7 °F 53.1 °F 88% 29.84 in 10.0 mi NW 3.5 mph - N/A   Scattered Clouds
2:34 AM 55.9 °F 52.7 °F 89% 29.84 in 10.0 mi West 3.5 mph - N/A   Clear
2:54 AM 55.8 °F 52.3 °F 88% 29.84 in 10.0 mi WNW 4.6 mph - N/A   Clear
3:14 AM 54.3 °F 52.0 °F 92% 29.84 in 10.0 mi NW 3.5 mph - N/A   Clear
3:34 AM 54.7 °F 52.0 °F 91% 29.84 in 10.0 mi NW 5.8 mph - N/A   Clear
3:54 AM 54.5 °F 52.2 °F 92% 29.85 in 10.0 mi NW 5.8 mph - N/A   Clear
4:13 AM 54.1 °F 52.0 °F 92% 29.86 in 10.0 mi WNW 5.8 mph - N/A   Clear
4:34 AM 53.2 °F 51.4 °F 94% 29.87 in 10.0 mi NNW 3.5 mph - N/A   Mostly Cloudy
4:54 AM 52.9 °F 51.1 °F 94% 29.87 in 10.0 mi NW 4.6 mph - N/A   Mostly Cloudy
5:13 AM 52.7 °F 50.9 °F 94% 29.87 in 10.0 mi WNW 4.6 mph - N/A   Scattered Clouds
5:34 AM 51.8 °F 50.2 °F 94% 29.88 in 7.0 mi NNW 4.6 mph - N/A   Scattered Clouds
5:54 AM 51.8 °F 50.4 °F 95% 29.88 in 7.0 mi NNW 5.8 mph - N/A   Mostly Cloudy
6:13 AM 52.0 °F 50.7 °F 95% 29.89 in 7.0 mi North 5.8 mph - N/A   Overcast
6:34 AM 52.0 °F 50.7 °F 95% 29.89 in 1.8 mi North 4.6 mph - N/A   Overcast
6:54 AM 52.3 °F 51.1 °F 95% 29.90 in 3.0 mi North 4.6 mph - N/A   Overcast
7:13 AM 52.7 °F 51.4 °F 95% 29.91 in 5.0 mi NNE 3.5 mph - N/A   Overcast
7:34 AM 52.9 °F 51.4 °F 95% 29.92 in 5.0 mi North 4.6 mph - N/A   Overcast
7:54 AM 53.1 °F 51.6 °F 95% 29.92 in 5.0 mi NNE 6.9 mph - N/A   Overcast
8:13 AM 52.9 °F 51.3 °F 94% 29.92 in 5.0 mi NE 8.1 mph - N/A   Overcast
8:34 AM 53.4 °F 51.8 °F 94% 29.92 in 5.0 mi NNE 6.9 mph - N/A   Overcast
8:54 AM 54.0 °F 51.8 °F 92% 29.92 in 10.0 mi NE 6.9 mph - N/A   Overcast
9:13 AM 54.5 °F 51.4 °F 89% 29.93 in 10.0 mi NE 6.9 mph - N/A   Overcast
9:34 AM 56.8 °F 52.7 °F 86% 29.93 in 10.0 mi NE 9.2 mph - N/A   Overcast
9:54 AM 57.6 °F 52.5 °F 83% 29.93 in 10.0 mi NE 10.4 mph - N/A   Overcast
10:13 AM 57.6 °F 52.0 °F 82% 29.93 in 10.0 mi ENE 10.4 mph - N/A   Overcast
10:34 AM 57.7 °F 52.3 °F 82% 29.93 in 10.0 mi East 5.8 mph - N/A   Overcast
10:53 AM 58.3 °F 52.9 °F 82% 29.94 in 10.0 mi East 8.1 mph - N/A   Overcast
11:14 AM 57.4 °F 52.0 °F 82% 29.94 in 10.0 mi East 6.9 mph - N/A   Overcast
11:34 AM 58.3 °F 52.0 °F 80% 29.96 in 10.0 mi East 6.9 mph - N/A   Overcast
11:53 AM 57.7 °F 51.1 °F 78% 29.97 in 10.0 mi East 8.1 mph - N/A   Overcast
12:14 PM 59.0 °F 51.4 °F 76% 29.98 in 10.0 mi ENE 9.2 mph - N/A   Overcast
12:34 PM 58.1 °F 50.7 °F 76% 29.98 in 10.0 mi ESE 9.2 mph - N/A   Overcast
12:53 PM 58.1 °F 50.4 °F 75% 29.98 in 10.0 mi East 11.5 mph - N/A   Overcast
1:14 PM 58.1 °F 50.7 °F 76% 29.97 in 10.0 mi East 10.4 mph 17.3 mph N/A   Overcast
1:34 PM 57.6 °F 50.7 °F 78% 29.98 in 10.0 mi East 10.4 mph - N/A   Overcast
1:53 PM 57.0 °F 50.5 °F 79% 29.98 in 10.0 mi ENE 12.7 mph - N/A   Overcast
2:14 PM 56.7 °F 50.7 °F 80% 29.98 in 10.0 mi East 6.9 mph - N/A   Overcast
2:34 PM 57.4 °F 50.5 °F 78% 29.98 in 10.0 mi East 10.4 mph 17.3 mph N/A   Overcast
2:53 PM 57.4 °F 49.5 °F 75% 29.98 in 10.0 mi East 6.9 mph - N/A   Overcast
3:14 PM 58.3 °F 50.0 °F 74% 29.97 in 10.0 mi East 5.8 mph - N/A   Scattered Clouds
3:33 PM 59.0 °F 50.2 °F 73% 29.97 in 10.0 mi East 6.9 mph - N/A   Clear
3:53 PM 58.3 °F 50.0 °F 74% 29.97 in 10.0 mi East 4.6 mph - N/A   Scattered Clouds
4:14 PM 58.3 °F 50.0 °F 74% 29.97 in 10.0 mi ESE 3.5 mph - N/A   Overcast
4:33 PM 59.2 °F 50.2 °F 72% 29.97 in 10.0 mi East 4.6 mph - N/A   Overcast
4:53 PM 59.2 °F 50.4 °F 73% 29.97 in 10.0 mi SE 6.9 mph - N/A   Scattered Clouds
5:14 PM 60.4 °F 50.7 °F 70% 29.97 in 10.0 mi SE 6.9 mph - N/A   Clear
5:33 PM 61.3 °F 50.9 °F 69% 29.97 in 10.0 mi East 5.8 mph - N/A   Clear
5:54 PM 60.1 °F 49.5 °F 68% 29.97 in 10.0 mi Calm Calm - N/A   Clear
6:14 PM 60.3 °F 49.6 °F 68% 29.97 in 10.0 mi SSE 3.5 mph - N/A   Clear
6:33 PM 60.1 °F 50.9 °F 72% 29.97 in 10.0 mi SE 5.8 mph - N/A   Clear
6:54 PM 60.3 °F 51.1 °F 72% 29.97 in 10.0 mi SSE 5.8 mph - N/A   Clear
7:14 PM 59.7 °F 50.5 °F 72% 29.97 in 10.0 mi SSE 5.8 mph - N/A   Clear
7:33 PM 59.0 °F 50.9 °F 74% 29.97 in 10.0 mi Calm Calm - N/A   Clear
7:54 PM 59.5 °F 50.4 °F 72% 29.97 in 10.0 mi Calm Calm - N/A   Clear
8:13 PM 59.0 °F 51.1 °F 75% 29.97 in 10.0 mi Calm Calm - N/A   Clear
8:33 PM 57.7 °F 51.8 °F 81% 29.97 in 10.0 mi Calm Calm - N/A   Clear
8:54 PM 57.4 °F 52.5 °F 84% 29.99 in 10.0 mi Calm Calm - N/A   Mostly Cloudy
9:13 PM 57.2 °F 52.9 °F 85% 29.99 in 10.0 mi Calm Calm - N/A   Overcast
9:33 PM 56.3 °F 53.1 °F 89% 30.00 in 10.0 mi ENE 4.6 mph - N/A   Mostly Cloudy
9:54 PM 55.4 °F 52.7 °F 91% 30.00 in 10.0 mi NE 4.6 mph - N/A   Scattered Clouds
10:13 PM 54.7 °F 52.3 °F 92% 30.01 in 10.0 mi NE 3.5 mph - N/A   Clear
10:34 PM 54.5 °F 52.2 °F 92% 30.02 in 10.0 mi NE 5.8 mph - N/A   Clear
10:54 PM 54.1 °F 50.4 °F 87% 30.03 in 10.0 mi NNE 4.6 mph - N/A   Clear
11:13 PM 53.6 °F 50.0 °F 88% 30.03 in 10.0 mi NNE 5.8 mph - N/A   Scattered Clouds
11:34 PM 52.0 °F 48.9 °F 89% 30.04 in 10.0 mi NNE 6.9 mph - N/A   Scattered Clouds
11:54 PM 52.0 °F 46.8 °F 82% 30.04 in 10.0 mi North 5.8 mph - N/A   Clear